| time (UTC) | temp F | wind direction | speed MPH | gust MPH | rain 1hr in | rain 24hr in | rain mn in | humidity % | barometer mb |
| 20260901205331 | 96 | 196 | 6.0 | 4.0 | 0.00 | 0.28 | 0.00 | 58 | 1013.5 |
| 20260901204831 | 96 | 196 | 2.0 | 4.0 | 0.00 | 0.28 | 0.00 | 58 | 1013.5 |
| 20260901204330 | 96 | 274 | 1.0 | 5.0 | 0.00 | 0.28 | 0.00 | 57 | 1013.6 |
| 20260901203831 | 96 | 170 | 5.0 | 5.0 | 0.00 | 0.28 | 0.00 | 57 | 1013.4 |
| 20260901203330 | 97 | 183 | 7.0 | 4.0 | 0.00 | 0.28 | 0.00 | 57 | 1013.4 |
| 20260901202831 | 97 | 164 | 3.0 | 3.0 | 0.00 | 0.28 | 0.00 | 58 | 1013.5 |
| 20260901202330 | 97 | 224 | 1.0 | 4.0 | 0.00 | 0.28 | 0.00 | 57 | 1013.6 |
| 20260901201831 | 97 | 333 | 2.0 | 3.0 | 0.00 | 0.28 | 0.00 | 57 | 1013.6 |
| 20260901201330 | 97 | 181 | 6.0 | 3.0 | 0.00 | 0.28 | 0.00 | 58 | 1013.6 |
| 20260901200832 | 97 | 250 | 3.0 | 3.0 | 0.00 | 0.28 | 0.00 | 57 | 1013.6 |
| 20260901200330 | 97 | 224 | 4.0 | 3.0 | 0.00 | 0.28 | 0.00 | 57 | 1013.7 |
| 20260901195831 | 98 | 249 | 2.0 | 4.0 | 0.00 | 0.43 | 0.00 | 56 | 1013.6 |
| 20260901195330 | 99 | 227 | 5.0 | 3.0 | 0.00 | 0.43 | 0.00 | 55 | 1013.6 |
| 20260901194830 | 99 | 184 | 5.0 | 4.0 | 0.00 | 0.43 | 0.00 | 56 | 1013.7 |
| 20260901194330 | 99 | 221 | 3.0 | 4.0 | 0.00 | 0.43 | 0.00 | 55 | 1013.7 |
| 20260901193831 | 99 | 231 | 5.0 | 4.0 | 0.00 | 0.43 | 0.00 | 54 | 1013.7 |
| 20260901193331 | 99 | 229 | 5.0 | 4.0 | 0.00 | 0.43 | 0.00 | 55 | 1013.7 |
| 20260901192830 | 100 | 169 | 11.0 | 4.0 | 0.00 | 0.43 | 0.00 | 54 | 1013.8 |
| 20260901192331 | 100 | 198 | 3.0 | 4.0 | 0.00 | 0.43 | 0.00 | 54 | 1013.8 |
| 20260901191831 | 99 | 219 | 2.0 | 4.0 | 0.00 | 0.43 | 0.00 | 55 | 1013.8 |
| 20260901191330 | 99 | 209 | 2.0 | 5.0 | 0.00 | 0.43 | 0.00 | 54 | 1013.8 |
| 20260901190831 | 99 | 207 | 4.0 | 5.0 | 0.00 | 0.43 | 0.00 | 54 | 1013.8 |
| 20260901190330 | 100 | 213 | 6.0 | 5.0 | 0.00 | 0.43 | 0.00 | 53 | 1013.8 |
| 20260901185831 | 101 | 221 | 5.0 | 4.0 | 0.00 | 0.43 | 0.00 | 52 | 1013.9 |
| 20260901185330 | 101 | 206 | 1.0 | 3.0 | 0.00 | 0.43 | 0.00 | 53 | 1014.0 |
| 20260901184831 | 102 | 233 | 3.0 | 4.0 | 0.00 | 0.43 | 0.00 | 52 | 1014.0 |
| 20260901184330 | 102 | 186 | 5.0 | 4.0 | 0.00 | 0.43 | 0.00 | 52 | 1014.1 |
| 20260901183830 | 102 | 224 | 3.0 | 3.0 | 0.00 | 0.43 | 0.00 | 51 | 1014.1 |
| 20260901183331 | 102 | 170 | 1.0 | 3.0 | 0.00 | 0.43 | 0.00 | 53 | 1014.1 |
| 20260901182831 | 102 | 154 | 4.0 | 3.0 | 0.00 | 0.43 | 0.00 | 53 | 1014.1 |
| 20260901182330 | 102 | 226 | 4.0 | 2.0 | 0.00 | 0.43 | 0.00 | 53 | 1014.1 |
| 20260901181831 | 101 | 223 | 2.0 | 2.0 | 0.00 | 0.43 | 0.00 | 53 | 1014.1 |
| 20260901181330 | 101 | 228 | 3.0 | 2.0 | 0.00 | 0.43 | 0.00 | 53 | 1014.0 |
| 20260901180830 | 101 | 276 | 1.0 | 3.0 | 0.00 | 0.43 | 0.00 | 51 | 1014.0 |
| 20260901180330 | 101 | 233 | 2.0 | 3.0 | 0.00 | 0.43 | 0.00 | 52 | 1014.1 |
| 20260901175830 | 101 | 281 | 2.0 | 2.0 | 0.00 | 0.43 | 0.00 | 53 | 1014.2 |
| 20260901175330 | 101 | 0 | 0.0 | 2.0 | 0.00 | 0.43 | 0.00 | 53 | 1014.4 |
| 20260901174831 | 101 | 236 | 4.0 | 2.0 | 0.00 | 0.43 | 0.00 | 53 | 1014.3 |
| 20260901174331 | 101 | 307 | 2.0 | 2.0 | 0.00 | 0.43 | 0.00 | 53 | 1014.3 |
| 20260901173830 | 100 | 284 | 3.0 | 4.0 | 0.00 | 0.43 | 0.00 | 53 | 1014.4 |
| 20260901173330 | 100 | 194 | 3.0 | 4.0 | 0.00 | 0.43 | 0.00 | 53 | 1014.5 |
| 20260901172831 | 101 | 209 | 3.0 | 3.0 | 0.00 | 0.43 | 0.00 | 52 | 1014.4 |
| 20260901172333 | 100 | 231 | 2.0 | 2.0 | 0.00 | 0.43 | 0.00 | 53 | 1014.5 |
| 20260901171831 | 100 | 269 | 1.0 | 2.0 | 0.00 | 0.43 | 0.00 | 54 | 1014.6 |
| 20260901171330 | 100 | 221 | 7.0 | 2.0 | 0.00 | 0.43 | 0.00 | 54 | 1014.5 |
| 20260901170830 | 100 | 233 | 2.0 | 2.0 | 0.00 | 0.43 | 0.00 | 55 | 1014.6 |
| 20260901170332 | 99 | 225 | 2.0 | 3.0 | 0.00 | 0.43 | 0.00 | 56 | 1014.6 |
| 20260901165830 | 99 | 218 | 3.0 | 3.0 | 0.00 | 0.43 | 0.00 | 57 | 1014.6 |
| 20260901165330 | 99 | 207 | 2.0 | 2.0 | 0.00 | 0.43 | 0.00 | 57 | 1014.7 |
| 20260901164831 | 99 | 235 | 2.0 | 2.0 | 0.00 | 0.43 | 0.00 | 58 | 1014.7 |
| 20260901164331 | 98 | 223 | 1.0 | 2.0 | 0.00 | 0.43 | 0.00 | 59 | 1014.8 |
| 20260901163830 | 98 | 206 | 3.0 | 3.0 | 0.00 | 0.43 | 0.00 | 59 | 1014.8 |
| 20260901163330 | 97 | 224 | 5.0 | 3.0 | 0.00 | 0.43 | 0.00 | 60 | 1014.8 |
| 20260901162831 | 97 | 223 | 3.0 | 2.0 | 0.00 | 0.43 | 0.00 | 60 | 1014.8 |
| 20260901162331 | 96 | 240 | 2.0 | 2.0 | 0.00 | 0.43 | 0.00 | 62 | 1014.8 |
| 20260901161830 | 95 | 302 | 2.0 | 3.0 | 0.00 | 0.43 | 0.00 | 63 | 1014.8 |
| 20260901161331 | 95 | 281 | 3.0 | 2.0 | 0.00 | 0.43 | 0.00 | 63 | 1014.8 |
| 20260901160831 | 94 | 225 | 2.0 | 2.0 | 0.00 | 0.43 | 0.00 | 65 | 1014.7 |
| 20260901160330 | 93 | 247 | 3.0 | 3.0 | 0.00 | 0.43 | 0.00 | 65 | 1014.7 |
| 20260901155831 | 93 | 217 | 5.0 | 3.0 | 0.00 | 0.47 | 0.00 | 66 | 1014.7 |
| 20260901155330 | 92 | 212 | 2.0 | 2.0 | 0.00 | 0.47 | 0.00 | 67 | 1014.7 |
| 20260901154830 | 91 | 240 | 1.0 | 2.0 | 0.00 | 0.47 | 0.00 | 68 | 1014.7 |
| 20260901154330 | 90 | 0 | 0.0 | 2.0 | 0.00 | 0.47 | 0.00 | 69 | 1014.7 |
| 20260901153831 | 90 | 219 | 2.0 | 1.0 | 0.00 | 0.47 | 0.00 | 69 | 1014.7 |
| 20260901153330 | 90 | 0 | 0.0 | 2.0 | 0.00 | 0.47 | 0.00 | 69 | 1014.7 |
| 20260901152830 | 89 | 231 | 4.0 | 3.0 | 0.00 | 0.47 | 0.00 | 70 | 1014.8 |
| 20260901152330 | 89 | 193 | 3.0 | 3.0 | 0.00 | 0.47 | 0.00 | 71 | 1014.8 |
| 20260901151831 | 88 | 234 | 2.0 | 2.0 | 0.00 | 0.47 | 0.00 | 71 | 1014.8 |
| 20260901151330 | 88 | 160 | 5.0 | 3.0 | 0.00 | 0.47 | 0.00 | 71 | 1014.8 |
| 20260901150830 | 88 | 0 | 0.0 | 3.0 | 0.00 | 0.47 | 0.00 | 72 | 1014.7 |
| 20260901150330 | 87 | 194 | 2.0 | 2.0 | 0.00 | 0.47 | 0.00 | 73 | 1014.8 |
| 20260901145830 | 87 | 199 | 1.0 | 2.0 | 0.00 | 0.47 | 0.00 | 73 | 1014.7 |
| 20260901145330 | 87 | 217 | 3.0 | 3.0 | 0.00 | 0.47 | 0.00 | 74 | 1014.7 |
| 20260901144830 | 86 | 217 | 2.0 | 3.0 | 0.00 | 0.47 | 0.00 | 73 | 1014.7 |
| 20260901144331 | 86 | 212 | 3.0 | 3.0 | 0.00 | 0.47 | 0.00 | 74 | 1014.8 |
| 20260901143330 | 85 | 205 | 2.0 | 3.0 | 0.00 | 0.47 | 0.00 | 76 | 1014.8 |
| 20260901142832 | 85 | 226 | 2.0 | 3.0 | 0.00 | 0.47 | 0.00 | 76 | 1014.8 |
| 20260901142331 | 84 | 191 | 5.0 | 3.0 | 0.00 | 0.47 | 0.00 | 77 | 1014.8 |
| 20260901141831 | 83 | 185 | 3.0 | 3.0 | 0.00 | 0.47 | 0.00 | 78 | 1014.8 |
| 20260901141331 | 83 | 236 | 4.0 | 3.0 | 0.00 | 0.47 | 0.00 | 79 | 1014.7 |
| 20260901140832 | 82 | 219 | 5.0 | 2.0 | 0.00 | 0.47 | 0.00 | 80 | 1014.8 |
| 20260901140331 | 82 | 212 | 2.0 | 1.0 | 0.00 | 0.47 | 0.00 | 81 | 1014.8 |
| 20260901135831 | 81 | 0 | 0.0 | 2.0 | 0.00 | 0.62 | 0.00 | 81 | 1014.7 |
| 20260901135331 | 81 | 211 | 3.0 | 2.0 | 0.00 | 0.62 | 0.00 | 81 | 1014.8 |
| 20260901133831 | 80 | 203 | 1.0 | 2.0 | 0.00 | 0.62 | 0.00 | 83 | 1015.1 |
| 20260901133331 | 80 | 197 | 5.0 | 2.0 | 0.00 | 0.62 | 0.00 | 83 | 1015.2 |
| 20260901132832 | 80 | 206 | 5.0 | 2.0 | 0.00 | 0.62 | 0.00 | 84 | 1015.3 |
| 20260901132331 | 80 | 225 | 2.0 | 2.0 | 0.00 | 0.62 | 0.00 | 84 | 1015.3 |
| 20260901131831 | 79 | 200 | 3.0 | 2.0 | 0.00 | 0.62 | 0.00 | 84 | 1015.2 |
| 20260901131331 | 79 | 195 | 2.0 | 2.0 | 0.00 | 0.62 | 0.00 | 84 | 1015.3 |
| 20260901130832 | 79 | 224 | 2.0 | 2.0 | 0.00 | 0.62 | 0.00 | 84 | 1015.2 |
| 20260901130331 | 79 | 0 | 0.0 | 1.0 | 0.00 | 0.62 | 0.00 | 85 | 1015.2 |
| 20260901125831 | 79 | 201 | 1.0 | 2.0 | 0.00 | 0.64 | 0.00 | 85 | 1015.3 |
| 20260901125331 | 79 | 221 | 1.0 | 3.0 | 0.00 | 0.64 | 0.00 | 85 | 1015.2 |
| 20260901124833 | 79 | 224 | 4.0 | 2.0 | 0.00 | 0.64 | 0.00 | 85 | 1015.1 |
| 20260901124331 | 78 | 203 | 2.0 | 1.0 | 0.00 | 0.64 | 0.00 | 85 | 1015.1 |
| 20260901123831 | 78 | 210 | 2.0 | 1.0 | 0.00 | 0.64 | 0.00 | 86 | 1015.2 |
| 20260901123331 | 78 | 213 | 1.0 | 1.0 | 0.00 | 0.64 | 0.00 | 86 | 1015.1 |
| 20260901122832 | 78 | 205 | 2.0 | 1.0 | 0.00 | 0.64 | 0.00 | 86 | 1015.1 |
| 20260901122331 | 78 | 0 | 0.0 | 2.0 | 0.00 | 0.64 | 0.00 | 86 | 1015.1 |
| 20260901121832 | 78 | 215 | 2.0 | 1.0 | 0.00 | 0.64 | 0.00 | 86 | 1015.0 |
| 20260901121331 | 78 | 197 | 1.0 | 1.0 | 0.00 | 0.64 | 0.00 | 86 | 1014.9 |
| 20260901120831 | 78 | 188 | 1.0 | 1.0 | 0.00 | 0.64 | 0.00 | 86 | 1014.9 |
| 20260901120331 | 77 | 213 | 2.0 | 1.0 | 0.00 | 0.64 | 0.00 | 86 | 1014.9 |
| 20260901115831 | 77 | 204 | 1.0 | 1.0 | 0.00 | 0.67 | 0.00 | 86 | 1014.9 |
| 20260901114831 | 77 | 217 | 3.0 | 1.0 | 0.00 | 0.67 | 0.00 | 86 | 1014.7 |
| 20260901114331 | 77 | 224 | 1.0 | 1.0 | 0.00 | 0.67 | 0.00 | 86 | 1014.6 |
| 20260901113831 | 77 | 186 | 1.0 | 1.0 | 0.00 | 0.67 | 0.00 | 86 | 1014.6 |
| 20260901113331 | 77 | 187 | 1.0 | 1.0 | 0.00 | 0.67 | 0.00 | 86 | 1014.6 |
| 20260901112831 | 77 | 0 | 0.0 | 1.0 | 0.00 | 0.67 | 0.00 | 86 | 1014.6 |
| 20260901112331 | 77 | 198 | 1.0 | 0.0 | 0.00 | 0.67 | 0.00 | 85 | 1014.5 |
| 20260901111831 | 77 | 198 | 1.0 | 0.0 | 0.00 | 0.67 | 0.00 | 85 | 1014.4 |
| 20260901111330 | 77 | 0 | 0.0 | 0.0 | 0.00 | 0.67 | 0.00 | 85 | 1014.2 |
| 20260901110831 | 77 | 0 | 0.0 | 0.0 | 0.00 | 0.67 | 0.00 | 85 | 1014.2 |
| 20260901110331 | 77 | 0 | 0.0 | 1.0 | 0.00 | 0.67 | 0.00 | 85 | 1014.2 |
| 20260901105330 | 77 | 195 | 2.0 | 1.0 | 0.00 | 0.67 | 0.00 | 85 | 1014.2 |
| 20260901104832 | 77 | 186 | 1.0 | 2.0 | 0.00 | 0.67 | 0.00 | 85 | 1014.3 |
| 20260901104331 | 77 | 214 | 2.0 | 2.0 | 0.00 | 0.67 | 0.00 | 85 | 1014.3 |
| 20260901103831 | 77 | 216 | 2.0 | 2.0 | 0.00 | 0.67 | 0.00 | 85 | 1014.2 |
| 20260901103331 | 78 | 188 | 2.0 | 1.0 | 0.00 | 0.67 | 0.00 | 85 | 1014.1 |
| 20260901102331 | 78 | 208 | 1.0 | 1.0 | 0.00 | 0.67 | 0.00 | 85 | 1014.1 |
| 20260901101831 | 78 | 220 | 1.0 | 1.0 | 0.00 | 0.67 | 0.00 | 85 | 1014.1 |
| 20260901101331 | 78 | 214 | 1.0 | 1.0 | 0.00 | 0.67 | 0.00 | 85 | 1014.1 |
| 20260901100831 | 78 | 214 | 2.0 | 0.0 | 0.00 | 0.67 | 0.00 | 84 | 1014.1 |
| 20260901100331 | 78 | 214 | 1.0 | 0.0 | 0.00 | 0.67 | 0.00 | 84 | 1014.0 |
| 20260901095831 | 78 | 0 | 0.0 | 1.0 | 0.00 | 0.67 | 0.00 | 84 | 1014.0 |
| 20260901095331 | 78 | 173 | 1.0 | 1.0 | 0.00 | 0.67 | 0.00 | 84 | 1014.0 |
| 20260901094831 | 78 | 207 | 2.0 | 1.0 | 0.00 | 0.67 | 0.00 | 84 | 1014.0 |
| 20260901094330 | 78 | 218 | 1.0 | 1.0 | 0.00 | 0.67 | 0.00 | 84 | 1014.0 |
| 20260901093831 | 78 | 218 | 1.0 | 1.0 | 0.00 | 0.67 | 0.00 | 84 | 1013.9 |
| 20260901093331 | 78 | 0 | 0.0 | 1.0 | 0.00 | 0.67 | 0.00 | 84 | 1013.9 |
| 20260901092831 | 78 | 188 | 1.0 | 1.0 | 0.00 | 0.67 | 0.00 | 84 | 1013.9 |
| 20260901092331 | 78 | 214 | 3.0 | 1.0 | 0.00 | 0.67 | 0.00 | 84 | 1013.9 |
| 20260901091831 | 78 | 213 | 2.0 | 1.0 | 0.00 | 0.67 | 0.00 | 84 | 1013.7 |
| 20260901091330 | 78 | 231 | 1.0 | 1.0 | 0.00 | 0.67 | 0.00 | 84 | 1013.7 |
| 20260901090330 | 78 | 223 | 1.0 | 2.0 | 0.00 | 0.67 | 0.00 | 84 | 1013.7 |
| 20260901085831 | 78 | 221 | 1.0 | 2.0 | 0.00 | 0.67 | 0.00 | 84 | 1013.6 |
| 20260901085330 | 78 | 221 | 2.0 | 2.0 | 0.00 | 0.67 | 0.00 | 84 | 1013.5 |
| 20260901084831 | 78 | 174 | 2.0 | 2.0 | 0.00 | 0.67 | 0.00 | 84 | 1013.6 |
| 20260901084330 | 78 | 214 | 2.0 | 2.0 | 0.00 | 0.67 | 0.00 | 84 | 1013.6 |
| 20260901083832 | 78 | 215 | 1.0 | 2.0 | 0.00 | 0.67 | 0.00 | 85 | 1013.6 |
| 20260901083331 | 78 | 221 | 3.0 | 2.0 | 0.00 | 0.67 | 0.00 | 85 | 1013.5 |
| 20260901082831 | 78 | 0 | 0.0 | 1.0 | 0.00 | 0.67 | 0.00 | 85 | 1013.5 |
| 20260901082330 | 78 | 215 | 4.0 | 1.0 | 0.00 | 0.67 | 0.00 | 85 | 1013.4 |
| 20260901081831 | 78 | 0 | 0.0 | 1.0 | 0.00 | 0.67 | 0.00 | 85 | 1013.5 |
| 20260901080330 | 77 | 215 | 1.0 | 1.0 | 0.00 | 0.67 | 0.00 | 86 | 1013.6 |
| 20260901075831 | 77 | 214 | 1.0 | 2.0 | 0.00 | 0.67 | 0.00 | 87 | 1013.5 |
| 20260901075331 | 77 | 213 | 1.0 | 2.0 | 0.00 | 0.67 | 0.00 | 87 | 1013.6 |
| 20260901074831 | 77 | 209 | 2.0 | 2.0 | 0.00 | 0.67 | 0.00 | 87 | 1013.5 |
| 20260901074330 | 77 | 209 | 2.0 | 2.0 | 0.00 | 0.67 | 0.00 | 87 | 1013.5 |
| 20260901073831 | 77 | 193 | 2.0 | 2.0 | 0.00 | 0.67 | 0.00 | 88 | 1013.4 |
| 20260901073330 | 77 | 210 | 2.0 | 2.0 | 0.00 | 0.67 | 0.00 | 88 | 1013.5 |
| 20260901072831 | 77 | 210 | 2.0 | 2.0 | 0.00 | 0.67 | 0.00 | 88 | 1013.6 |
| 20260901072331 | 77 | 205 | 1.0 | 1.0 | 0.00 | 0.67 | 0.00 | 88 | 1013.4 |
| 20260901070831 | 77 | 0 | 0.0 | 0.0 | 0.00 | 0.67 | 0.00 | 87 | 1013.4 |
| 20260901070340 | 77 | 205 | 1.0 | 0.0 | 0.00 | 0.67 | 0.00 | 87 | 1013.4 |
| 20260901065831 | 77 | 0 | 0.0 | 0.0 | 0.00 | 0.67 | 0.00 | 87 | 1013.4 |
| 20260901065330 | 77 | 0 | 0.0 | 0.0 | 0.00 | 0.67 | 0.00 | 87 | 1013.4 |
| 20260901064831 | 77 | 0 | 0.0 | 0.0 | 0.00 | 0.67 | 0.00 | 87 | 1013.3 |
| 20260901064331 | 77 | 0 | 0.0 | 0.0 | 0.00 | 0.67 | 0.00 | 86 | 1013.2 |
| 20260901063831 | 77 | 0 | 0.0 | 0.0 | 0.00 | 0.67 | 0.00 | 86 | 1013.1 |
| 20260901063330 | 77 | 0 | 0.0 | 0.0 | 0.00 | 0.67 | 0.00 | 86 | 1013.2 |
| 20260901062831 | 77 | 0 | 0.0 | 0.0 | 0.00 | 0.67 | 0.00 | 86 | 1013.2 |
| 20260901061831 | 77 | 0 | 0.0 | 0.0 | 0.00 | 0.67 | 0.00 | 86 | 1013.1 |
| 20260901061331 | 77 | 0 | 0.0 | 0.0 | 0.00 | 0.67 | 0.00 | 86 | 1013.1 |
| 20260901060330 | 78 | 0 | 0.0 | 0.0 | 0.00 | 0.67 | 0.00 | 86 | 1013.2 |
| 20260901055331 | 78 | 0 | 0.0 | 0.0 | 0.00 | 0.67 | 0.00 | 86 | 1013.4 |
| 20260901054831 | 78 | 0 | 0.0 | 0.0 | 0.00 | 0.67 | 0.00 | 86 | 1013.4 |
| 20260901054331 | 78 | 0 | 0.0 | 0.0 | 0.00 | 0.67 | 0.00 | 86 | 1013.4 |
| 20260901053831 | 78 | 0 | 0.0 | 0.0 | 0.00 | 0.67 | 0.00 | 86 | 1013.5 |
| 20260901052330 | 78 | 0 | 0.0 | 0.0 | 0.00 | 0.67 | 0.00 | 86 | 1013.3 |
| 20260901051831 | 78 | 0 | 0.0 | 1.0 | 0.00 | 0.67 | 0.00 | 86 | 1013.4 |
| 20260901051330 | 78 | 205 | 1.0 | 1.0 | 0.00 | 0.67 | 0.00 | 86 | 1013.4 |
| 20260901050831 | 78 | 0 | 0.0 | 1.0 | 0.00 | 0.67 | 0.00 | 86 | 1013.3 |
| 20260901050331 | 78 | 205 | 1.0 | 1.0 | 0.00 | 0.67 | 0.00 | 86 | 1013.3 |
| 20260901045830 | 78 | 205 | 3.0 | 1.0 | 0.00 | 0.67 | 0.67 | 86 | 1013.3 |
| 20260901045330 | 79 | 0 | 0.0 | 1.0 | 0.00 | 0.67 | 0.67 | 86 | 1013.3 |
| 20260901044831 | 79 | 225 | 1.0 | 1.0 | 0.00 | 0.67 | 0.67 | 86 | 1013.2 |
| 20260901044330 | 79 | 197 | 1.0 | 1.0 | 0.00 | 0.67 | 0.67 | 86 | 1013.2 |
| 20260901043831 | 79 | 180 | 1.0 | 1.0 | 0.00 | 0.67 | 0.67 | 86 | 1013.2 |
| 20260901043331 | 79 | 179 | 1.0 | 1.0 | 0.00 | 0.67 | 0.67 | 86 | 1013.3 |
| 20260901042831 | 79 | 181 | 2.0 | 1.0 | 0.00 | 0.67 | 0.67 | 86 | 1013.3 |
| 20260901042332 | 79 | 207 | 2.0 | 1.0 | 0.00 | 0.67 | 0.67 | 86 | 1013.4 |
| 20260901041830 | 79 | 210 | 1.0 | 1.0 | 0.00 | 0.67 | 0.67 | 86 | 1013.4 |
| 20260901041330 | 79 | 191 | 1.0 | 1.0 | 0.00 | 0.67 | 0.67 | 86 | 1013.4 |
| 20260901040832 | 79 | 0 | 0.0 | 1.0 | 0.00 | 0.67 | 0.67 | 86 | 1013.5 |
| 20260901040330 | 79 | 191 | 1.0 | 2.0 | 0.00 | 0.67 | 0.67 | 86 | 1013.5 |
| 20260901035831 | 79 | 209 | 2.0 | 2.0 | 0.00 | 0.68 | 0.67 | 86 | 1013.6 |
| 20260901035330 | 79 | 212 | 2.0 | 1.0 | 0.00 | 0.68 | 0.67 | 86 | 1013.4 |
| 20260901034830 | 79 | 212 | 1.0 | 2.0 | 0.00 | 0.68 | 0.67 | 86 | 1013.5 |
| 20260901034331 | 79 | 212 | 2.0 | 2.0 | 0.00 | 0.68 | 0.67 | 86 | 1013.4 |
| 20260901033830 | 79 | 219 | 2.0 | 2.0 | 0.00 | 0.68 | 0.67 | 86 | 1013.4 |
| 20260901033330 | 79 | 224 | 2.0 | 2.0 | 0.00 | 0.68 | 0.67 | 86 | 1013.5 |
| 20260901032831 | 79 | 224 | 1.0 | 2.0 | 0.00 | 0.68 | 0.67 | 86 | 1013.5 |
| 20260901032330 | 79 | 210 | 4.0 | 2.0 | 0.00 | 0.68 | 0.67 | 86 | 1013.5 |
| 20260901031830 | 79 | 191 | 1.0 | 2.0 | 0.00 | 0.68 | 0.67 | 86 | 1013.5 |
| 20260901031330 | 79 | 217 | 1.0 | 2.0 | 0.00 | 0.68 | 0.67 | 87 | 1013.6 |
| 20260901030830 | 79 | 219 | 1.0 | 2.0 | 0.00 | 0.68 | 0.67 | 87 | 1013.5 |
| 20260901030330 | 79 | 204 | 2.0 | 2.0 | 0.00 | 0.68 | 0.67 | 87 | 1013.5 |
| 20260901025830 | 79 | 201 | 2.0 | 2.0 | 0.00 | 0.68 | 0.67 | 87 | 1013.5 |
| 20260901025330 | 79 | 217 | 1.0 | 2.0 | 0.00 | 0.68 | 0.67 | 87 | 1013.4 |
| 20260901024830 | 79 | 199 | 2.0 | 2.0 | 0.00 | 0.68 | 0.67 | 87 | 1013.6 |
| 20260901024330 | 79 | 186 | 1.0 | 2.0 | 0.00 | 0.68 | 0.67 | 87 | 1013.8 |
| 20260901023831 | 79 | 217 | 1.0 | 1.0 | 0.00 | 0.68 | 0.67 | 87 | 1014.0 |
| 20260901022830 | 80 | 217 | 2.0 | 1.0 | 0.00 | 0.68 | 0.67 | 87 | 1013.9 |
| 20260901022330 | 80 | 217 | 1.0 | 1.0 | 0.00 | 0.68 | 0.67 | 87 | 1013.9 |
| 20260901021831 | 80 | 0 | 0.0 | 1.0 | 0.00 | 0.68 | 0.67 | 88 | 1013.9 |
| 20260901020831 | 80 | 217 | 1.0 | 1.0 | 0.00 | 0.68 | 0.67 | 88 | 1013.7 |
| 20260901020330 | 80 | 217 | 1.0 | 0.0 | 0.00 | 0.68 | 0.67 | 88 | 1013.9 |
| 20260901015830 | 80 | 0 | 0.0 | 0.0 | 0.00 | 0.68 | 0.67 | 88 | 1014.0 |
| 20260901015330 | 80 | 0 | 0.0 | 1.0 | 0.00 | 0.68 | 0.67 | 88 | 1013.8 |
| 20260901014830 | 80 | 217 | 2.0 | 2.0 | 0.00 | 0.68 | 0.67 | 88 | 1013.7 |
| 20260901013830 | 80 | 207 | 1.0 | 2.0 | 0.00 | 0.68 | 0.67 | 88 | 1013.6 |
| 20260901013330 | 80 | 219 | 1.0 | 2.0 | 0.00 | 0.68 | 0.67 | 88 | 1013.6 |
| 20260901012832 | 80 | 220 | 2.0 | 2.0 | 0.00 | 0.68 | 0.67 | 88 | 1013.4 |
| 20260901012330 | 80 | 221 | 2.0 | 1.0 | 0.00 | 0.68 | 0.67 | 88 | 1013.4 |
| 20260901011830 | 80 | 191 | 2.0 | 1.0 | 0.00 | 0.68 | 0.67 | 88 | 1013.4 |
| 20260901011331 | 80 | 0 | 0.0 | 2.0 | 0.00 | 0.68 | 0.67 | 88 | 1013.4 |
| 20260901010830 | 80 | 218 | 2.0 | 3.0 | 0.00 | 0.68 | 0.67 | 88 | 1013.4 |
| 20260901010330 | 80 | 215 | 4.0 | 3.0 | 0.00 | 0.68 | 0.67 | 88 | 1013.4 |
| 20260901005830 | 80 | 198 | 2.0 | 2.0 | 0.00 | 0.68 | 0.67 | 88 | 1013.4 |
| 20260901005330 | 80 | 218 | 2.0 | 2.0 | 0.00 | 0.68 | 0.67 | 88 | 1013.5 |
| 20260901004830 | 80 | 207 | 2.0 | 1.0 | 0.00 | 0.68 | 0.67 | 88 | 1013.6 |
| 20260901003831 | 80 | 0 | 0.0 | 0.0 | 0.00 | 0.68 | 0.67 | 88 | 1013.3 |
| 20260901003330 | 80 | 0 | 0.0 | 0.0 | 0.00 | 0.68 | 0.67 | 88 | 1013.3 |
| 20260901002330 | 80 | 0 | 0.0 | 0.0 | 0.00 | 0.68 | 0.67 | 87 | 1013.1 |
| 20260901001830 | 80 | 0 | 0.0 | 0.0 | 0.00 | 0.68 | 0.67 | 87 | 1013.1 |
| 20260901001330 | 80 | 0 | 0.0 | 0.0 | 0.00 | 0.68 | 0.67 | 87 | 1013.1 |
| 20260901000830 | 80 | 0 | 0.0 | 0.0 | 0.00 | 0.68 | 0.67 | 87 | 1012.9 |
| 20260901000330 | 80 | 0 | 0.0 | 0.0 | 0.00 | 0.68 | 0.67 | 87 | 1012.8 |
| 20260831235330 | 81 | 0 | 0.0 | 1.0 | 0.00 | 0.69 | 0.67 | 87 | 1013.0 |
| 20260831234830 | 81 | 0 | 0.0 | 1.0 | 0.00 | 0.69 | 0.67 | 87 | 1013.0 |
| 20260831234330 | 81 | 212 | 1.0 | 1.0 | 0.00 | 0.69 | 0.67 | 87 | 1013.2 |
| 20260831233830 | 81 | 212 | 2.0 | 2.0 | 0.00 | 0.69 | 0.67 | 87 | 1013.3 |
| 20260831233330 | 81 | 212 | 1.0 | 2.0 | 0.00 | 0.69 | 0.67 | 87 | 1013.4 |
| 20260831232830 | 81 | 212 | 2.0 | 2.0 | 0.01 | 0.69 | 0.67 | 87 | 1013.4 |
| 20260831232330 | 81 | 212 | 2.0 | 2.0 | 0.02 | 0.69 | 0.67 | 87 | 1013.3 |
| 20260831231831 | 81 | 212 | 2.0 | 3.0 | 0.04 | 0.69 | 0.67 | 87 | 1013.2 |
| 20260831231330 | 81 | 216 | 3.0 | 3.0 | 0.05 | 0.69 | 0.67 | 88 | 1013.2 |
| 20260831230831 | 81 | 219 | 2.0 | 3.0 | 0.06 | 0.69 | 0.67 | 88 | 1013.0 |
| 20260831230331 | 81 | 220 | 3.0 | 2.0 | 0.09 | 0.69 | 0.67 | 88 | 1013.1 |
| 20260831225832 | 81 | 225 | 2.0 | 2.0 | 0.09 | 0.71 | 0.67 | 88 | 1013.0 |
| 20260831225331 | 81 | 196 | 2.0 | 3.0 | 0.10 | 0.71 | 0.67 | 88 | 1012.9 |
| 20260831224832 | 81 | 187 | 2.0 | 2.0 | 0.21 | 0.71 | 0.67 | 87 | 1012.8 |
| 20260831224331 | 81 | 195 | 3.0 | 2.0 | 0.21 | 0.71 | 0.67 | 87 | 1013.0 |
| 20260831223831 | 82 | 220 | 2.0 | 1.0 | 0.21 | 0.71 | 0.67 | 87 | 1013.0 |
| 20260831223331 | 82 | 221 | 1.0 | 1.0 | 0.21 | 0.71 | 0.67 | 87 | 1013.1 |
| 20260831222831 | 82 | 0 | 0.0 | 1.0 | 0.20 | 0.70 | 0.66 | 86 | 1013.2 |
| 20260831222331 | 82 | 0 | 0.0 | 1.0 | 0.19 | 0.69 | 0.65 | 86 | 1013.2 |
| 20260831221832 | 82 | 220 | 1.0 | 0.0 | 0.16 | 0.66 | 0.62 | 86 | 1013.4 |
| 20260831221331 | 82 | 0 | 0.0 | 0.0 | 0.16 | 0.66 | 0.62 | 85 | 1013.2 |
| 20260831220331 | 82 | 0 | 0.0 | 1.0 | 0.12 | 0.62 | 0.58 | 85 | 1012.9 |
| 20260831215831 | 82 | 165 | 1.0 | 1.0 | 0.12 | 0.62 | 0.58 | 84 | 1012.9 |
| 20260831215332 | 82 | 161 | 1.0 | 1.0 | 0.11 | 0.61 | 0.57 | 85 | 1013.0 |
| 20260831214831 | 82 | 0 | 0.0 | 1.0 | 0.01 | 0.50 | 0.46 | 85 | 1013.8 |
| 20260831213831 | 83 | 322 | 2.0 | 0.0 | 0.01 | 0.50 | 0.46 | 86 | 1013.1 |
| 20260831213331 | 83 | 0 | 0.0 | 0.0 | 0.01 | 0.50 | 0.46 | 86 | 1012.6 |
| 20260831212831 | 83 | 0 | 0.0 | 1.0 | 0.01 | 0.50 | 0.46 | 87 | 1012.4 |
| 20260831212331 | 82 | 0 | 0.0 | 1.0 | 0.02 | 0.50 | 0.46 | 87 | 1012.6 |
| 20260831211831 | 82 | 184 | 1.0 | 1.0 | 0.02 | 0.50 | 0.46 | 87 | 1012.7 |
| 20260831211331 | 81 | 0 | 0.0 | 1.0 | 0.06 | 0.50 | 0.46 | 88 | 1012.8 |
| 20260831210831 | 81 | 316 | 1.0 | 0.0 | 0.07 | 0.50 | 0.46 | 87 | 1013.0 |
| 20260831210331 | 81 | 316 | 1.0 | 0.0 | 0.07 | 0.50 | 0.46 | 87 | 1013.3 |
| 20260831205831 | 80 | 0 | 0.0 | 1.0 | 0.07 | 0.50 | 0.46 | 86 | 1013.5 |